EW8655 Weather Reports


time (UTC)temp
C
wind
direction
speed
KPH
gust
KPH
rain 1hr
cm
rain 24hr
cm
rain mn
cm
humidity
%
barometer
mb
20260504050507 12 232 25.7 35.4 0.00 0.00 0.00 58 1006.1
20260504050007 12 240 25.7 35.4 0.00 0.00 0.00 58 1006.1
20260504045008 12 240 22.5 32.2 0.00 0.00 0.00 58 1006.1
20260504044007 12 235 24.1 32.2 0.00 0.00 0.00 58 1007.1
20260504043508 12 238 25.7 32.2 0.00 0.00 0.00 58 1006.1
20260504043008 12 237 22.5 35.4 0.00 0.00 0.00 58 1006.1
20260504042507 13 224 25.7 35.4 0.00 0.00 0.00 58 1006.1
20260504042008 12 247 25.7 35.4 0.00 0.00 0.00 58 1006.1
20260504041507 12 225 24.1 29.0 0.00 0.00 0.00 59 1006.1
20260504041007 13 239 25.7 29.0 0.00 0.00 0.00 59 1006.2
20260504040508 13 237 25.7 29.0 0.00 0.00 0.00 59 1006.1
20260504035506 13 240 25.7 29.0 0.00 0.00 0.00 59 1006.1
20260504035007 12 236 22.5 29.0 0.00 0.00 0.00 59 1006.1
20260504033507 12 232 19.3 25.7 0.00 0.00 0.00 60 1006.6
20260504033007 12 231 19.3 25.7 0.00 0.00 0.00 60 1007.1
20260504032507 12 220 19.3 25.7 0.00 0.00 0.00 61 1007.1
20260504032008 12 233 20.9 25.7 0.00 0.00 0.00 61 1007.1
20260504031507 12 243 19.3 25.7 0.00 0.00 0.00 61 1007.1
20260504031007 12 230 22.5 25.7 0.00 0.00 0.00 61 1007.1
20260504030507 12 231 19.3 25.7 0.00 0.00 0.00 62 1007.1
20260504030007 12 234 19.3 25.7 0.00 0.00 0.00 62 1007.1
20260504025506 12 228 19.3 25.7 0.00 0.00 0.00 63 1007.1
20260504025008 12 237 22.5 25.7 0.00 0.00 0.00 63 1007.1
20260504024506 12 234 19.3 22.5 0.00 0.00 0.00 65 1007.1
20260504024008 12 233 19.3 22.5 0.00 0.00 0.00 65 1007.1
20260504023507 12 232 19.3 22.5 0.00 0.00 0.00 66 1007.1
20260504023008 12 229 14.5 19.3 0.00 0.00 0.00 68 1007.1
20260504022507 12 223 14.5 19.3 0.00 0.00 0.00 69 1007.1
20260504022007 12 223 14.5 19.3 0.00 0.00 0.00 70 1007.3
20260504021507 12 221 14.5 19.3 0.00 0.00 0.00 71 1007.1
20260504020507 11 240 11.3 14.5 0.00 0.00 0.00 74 1008.1
20260504015506 11 235 11.3 14.5 0.00 0.00 0.00 76 1008.1
20260504015008 11 232 11.3 14.5 0.00 0.00 0.00 77 1008.1
20260504014507 11 224 11.3 14.5 0.00 0.00 0.00 78 1008.1
20260504014007 11 219 8.0 11.3 0.00 0.00 0.00 78 1008.1
20260504013507 11 208 8.0 11.3 0.00 0.00 0.00 78 1008.1
20260504012007 11 212 11.3 14.5 0.00 0.00 0.00 79 1008.1
20260504011507 11 218 11.3 14.5 0.00 0.00 0.00 79 1008.1
20260504011007 11 221 11.3 22.5 0.00 0.00 0.00 79 1008.1
20260504010507 11 206 14.5 22.5 0.00 0.00 0.00 80 1008.1
20260504010006 10 209 11.3 22.5 0.00 0.00 0.00 81 1008.1
20260504005506 10 205 9.7 11.3 0.00 0.00 0.00 81 1008.1
20260504005008 10 180 8.0 11.3 0.00 0.00 0.00 80 1008.1
20260504004506 10 193 8.0 8.0 0.00 0.00 0.00 79 1008.1
20260504004007 10 204 8.0 11.3 0.00 0.00 0.00 79 1008.1
20260504003507 10 206 8.0 11.3 0.00 0.00 0.00 78 1008.1
20260504003007 10 218 11.3 11.3 0.00 0.00 0.00 78 1008.1
20260504002506 10 228 11.3 11.3 0.00 0.00 0.00 77 1008.1
20260504001507 10 245 11.3 14.5 0.00 0.00 0.00 74 1008.1
20260504001007 10 263 12.9 14.5 0.00 0.00 0.00 73 1008.1
20260504000507 10 278 14.5 19.3 0.00 0.00 0.00 72 1008.1
20260504000006 11 275 14.5 22.5 0.00 0.00 0.00 71 1008.1
20260503235507 11 275 19.3 25.7 0.00 0.00 0.00 69 1008.1
20260503235008 11 272 19.3 25.7 0.00 0.00 0.00 68 1008.1
20260503234506 11 272 19.3 25.7 0.00 0.00 0.00 68 1008.1
20260503234007 11 271 22.5 32.2 0.00 0.00 0.00 67 1008.1
20260503233507 11 256 27.4 32.2 0.00 0.00 0.00 65 1008.1
20260503233008 11 261 29.0 32.2 0.00 0.00 0.00 63 1008.1
20260503232506 11 258 29.0 35.4 0.00 0.00 0.00 62 1008.1
20260503232007 11 261 29.0 35.4 0.00 0.00 0.00 60 1008.1
20260503231506 12 254 25.7 35.4 0.00 0.00 0.00 58 1008.1
20260503230507 12 256 20.9 29.0 0.00 0.00 0.00 57 1008.1
20260503225506 12 253 25.7 29.0 0.00 0.00 0.00 56 1007.1
20260503225007 12 255 22.5 32.2 0.00 0.00 0.00 55 1007.1
20260503224506 12 249 27.4 32.2 0.00 0.00 0.00 55 1007.1
20260503224007 12 243 29.0 32.2 0.00 0.00 0.00 55 1007.1
20260503223507 12 246 25.7 35.4 0.00 0.00 0.00 55 1007.1
20260503223007 12 246 29.0 38.6 0.00 0.00 0.00 54 1007.1
20260503222507 12 246 32.2 38.6 0.00 0.00 0.00 53 1007.1
20260503222007 12 250 32.2 35.4 0.00 0.00 0.00 53 1006.6
20260503221007 12 248 27.4 35.4 0.00 0.00 0.00 53 1007.1
20260503220507 12 246 22.5 35.4 0.00 0.00 0.00 53 1007.1
20260503215506 12 260 20.9 29.0 0.00 0.00 0.00 53 1007.1
20260503215007 12 256 24.1 35.4 0.00 0.00 0.00 52 1007.1
20260503214506 13 250 29.0 38.6 0.00 0.00 0.00 52 1007.1
20260503214006 13 258 32.2 38.6 0.00 0.00 0.00 52 1007.1
20260503213507 12 229 29.0 38.6 0.00 0.00 0.00 53 1006.2
20260503213007 12 218 27.4 38.6 0.00 0.00 0.00 53 1007.1
20260503212506 12 221 25.7 38.6 0.00 0.00 0.00 52 1007.1
20260503212007 12 289 25.7 35.4 0.00 0.00 0.00 52 1007.1
20260503211007 13 260 22.5 32.2 0.00 0.00 0.00 52 1007.1
20260503210507 13 272 24.1 32.2 0.00 0.00 0.00 51 1007.1
20260503210006 13 253 22.5 32.2 0.00 0.00 0.00 52 1007.1
20260503205506 13 253 25.7 32.2 0.00 0.00 0.00 51 1007.1
20260503205007 13 241 19.3 29.0 0.00 0.00 0.00 51 1007.1
20260503204506 13 278 19.3 29.0 0.00 0.00 0.00 51 1007.1
20260503204007 13 283 22.5 32.2 0.00 0.00 0.00 51 1007.1
20260503203506 13 280 25.7 32.2 0.00 0.00 0.00 50 1007.1
20260503203007 13 243 25.7 32.2 0.00 0.00 0.00 50 1007.1
20260503202507 13 249 22.5 32.2 0.00 0.00 0.00 50 1007.1
20260503202007 13 279 22.5 29.0 0.00 0.00 0.00 50 1007.1
20260503201506 13 247 22.5 35.4 0.00 0.00 0.00 50 1007.1
20260503201007 13 276 30.6 41.8 0.00 0.00 0.00 50 1007.1
20260503200507 13 264 29.0 41.8 0.00 0.00 0.00 50 1007.1
20260503200006 13 249 27.4 32.2 0.00 0.00 0.00 50 1008.1
20260503195506 13 258 20.9 35.4 0.00 0.00 0.00 51 1008.1
20260503195006 13 241 22.5 35.4 0.00 0.00 0.00 51 1008.1
20260503194007 13 262 25.7 32.2 0.00 0.00 0.00 52 1008.1
20260503193506 13 260 22.5 35.4 0.00 0.00 0.00 53 1008.1
20260503193007 12 253 25.7 35.4 0.00 0.00 0.00 53 1008.1
20260503192506 12 239 22.5 35.4 0.00 0.00 0.00 55 1008.2
20260503192007 12 221 24.1 32.2 0.00 0.00 0.00 56 1009.1
20260503191506 12 255 24.1 32.2 0.00 0.00 0.00 59 1009.1
20260503191006 12 271 17.7 32.2 0.00 0.00 0.00 63 1009.1
20260503190506 8 65 6.4 14.5 0.00 0.00 0.00 69 1010.0
20260503190006 8 89 8.0 14.5 0.00 0.00 0.00 68 1009.1
20260503185506 8 67 8.0 14.5 0.00 0.00 0.00 69 1009.6
20260503185007 7 80 11.3 19.3 0.00 0.00 0.00 69 1010.1
20260503184506 7 67 11.3 19.3 0.00 0.00 0.00 68 1010.1
20260503184007 7 83 11.3 11.3 0.00 0.00 0.00 68 1010.1
20260503183506 7 90 8.0 11.3 0.00 0.00 0.00 68 1010.1
20260503183007 8 94 8.0 11.3 0.00 0.00 0.00 68 1010.1
20260503182506 8 52 8.0 11.3 0.00 0.00 0.00 67 1010.1
20260503182007 8 41 8.0 8.0 0.00 0.00 0.00 67 1010.1
20260503181506 8 29 8.0 11.3 0.00 0.00 0.00 67 1010.1
20260503181006 8 34 8.0 11.3 0.00 0.00 0.00 67 1010.1
20260503180506 8 18 8.0 14.5 0.00 0.00 0.00 67 1010.1
20260503180005 8 16 11.3 14.5 0.00 0.00 0.00 67 1010.1
20260503175506 8 21 8.0 11.3 0.00 0.00 0.00 67 1010.1
20260503174506 8 33 8.0 11.3 0.00 0.00 0.00 66 1010.1
20260503174007 8 35 8.0 11.3 0.00 0.00 0.00 66 1010.1
20260503173507 8 23 8.0 14.5 0.00 0.00 0.00 66 1010.1
20260503172506 8 353 8.0 14.5 0.00 0.00 0.00 66 1010.1
20260503172006 8 13 8.0 11.3 0.00 0.00 0.00 67 1010.1
20260503171506 8 24 8.0 14.5 0.00 0.00 0.00 66 1010.7
20260503171007 8 14 9.7 14.5 0.00 0.00 0.00 66 1011.0
20260503170506 8 22 11.3 11.3 0.00 0.00 0.00 66 1011.1
20260503151007 8 56 11.3 11.3 0.00 0.00 0.00 66 1012.1
20260503150506 8 51 8.0 14.5 0.00 0.00 0.00 65 1012.1
20260503131006 7 256 14.5 22.5 0.00 0.00 0.00 64 1013.1
20260503130506 7 257 14.5 22.5 0.00 0.00 0.00 64 1013.1
20260503110508 3 259 14.5 19.3 0.00 0.00 0.00 79 1013.7
20260503090508 3 257 14.5 22.5 0.00 0.00 0.00 78 1013.1
20260503081507 4 247 14.5 14.5 0.00 0.00 0.00 78 1013.1
20260503080508 4 249 11.3 14.5 0.00 0.00 0.00 78 1013.1
20260503072506 5 252 14.5 14.5 0.00 0.00 0.00 77 1013.1
20260503072007 5 259 14.5 14.5 0.00 0.00 0.00 77 1013.1
20260503071507 5 258 14.5 14.5 0.00 0.00 0.00 77 1013.1
20260503054507 5 256 11.3 14.5 0.00 0.00 0.00 72 1013.1
20260503054008 6 258 11.3 14.5 0.00 0.00 0.00 72 1013.1